• In Uzbekistan
  • List of Countries
  • For 7 days
  • Water Temperature
  • Satellite Maps
  • Weather Map
  • Weather Widgets
  • user-avatar
    Login

    Hourly Weather Ocotepec

    Today, 20 April, Friday

    Time Temperature Precipitation Wind Pressure Humidity
    00:00 +15°C° 0 mm 1 mps 638 mmHg 88%
    01:00 +15°C° 0.1 mm 1 mps 638 mmHg 88%
    02:00 +15°C° 0.1 mm 1 mps 638 mmHg 88%
    03:00 +15°C° 0.1 mm 1 mps 637 mmHg 89%
    04:00 +15°C° 0 mm 1 mps 637 mmHg 88%
    05:00 +14°C° 0 mm 1 mps 637 mmHg 88%
    06:00 +14°C° 0 mm 1 mps 637 mmHg 88%
    07:00 +16°C° 0 mm 1 mps 638 mmHg 80%
    08:00 +19°C° 0 mm 1 mps 639 mmHg 73%
    09:00 +21°C° 0 mm 1 mps 639 mmHg 65%
    10:00 +21°C° 0 mm 2 mps 640 mmHg 61%
    11:00 +23°C° 0 mm 2 mps 640 mmHg 58%
    12:00 +24°C° 0 mm 2 mps 640 mmHg 54%
    13:00 +24°C° 0 mm 2 mps 640 mmHg 55%
    14:00 +24°C° 0 mm 2 mps 639 mmHg 56%
    15:00 +24°C° 0 mm 2 mps 639 mmHg 58%
    16:00 +23°C° 0.1 mm 2 mps 638 mmHg 63%
    17:00 +21°C° 0.1 mm 2 mps 638 mmHg 69%
    18:00 +20°C° 0.1 mm 2 mps 637 mmHg 74%
    19:00 +18°C° 0 mm 2 mps 637 mmHg 78%
    20:00 +17°C° 0 mm 2 mps 637 mmHg 83%
    21:00 +16°C° 0 mm 1 mps 637 mmHg 87%
    22:00 +16°C° 0 mm 1 mps 638 mmHg 87%
    23:00 +16°C° 0 mm 1 mps 638 mmHg 87%

    Tomorrow, 21 April, Saturday

    Time Temperature Precipitation Wind Pressure Humidity
    00:00 +15°C° 0 mm 1 mps 638 mmHg 86%
    01:00 +15°C° 0 mm 1 mps 637 mmHg 86%
    02:00 +15°C° 0 mm 1 mps 637 mmHg 85%
    03:00 +15°C° 0 mm 1 mps 636 mmHg 85%
    04:00 +14°C° 0 mm 1 mps 636 mmHg 84%
    05:00 +14°C° 0 mm 1 mps 636 mmHg 84%
    06:00 +14°C° 0 mm 1 mps 636 mmHg 84%
    07:00 +16°C° 0 mm 1 mps 637 mmHg 75%
    08:00 +20°C° 0 mm 1 mps 638 mmHg 67%
    09:00 +22°C° 0 mm 1 mps 639 mmHg 59%
    10:00 +24°C° 0 mm 1 mps 639 mmHg 55%
    11:00 +26°C° 0 mm 1 mps 639 mmHg 50%
    12:00 +27°C° 0 mm 2 mps 639 mmHg 45%
    13:00 +27°C° 0 mm 2 mps 638 mmHg 47%
    14:00 +27°C° 0 mm 2 mps 638 mmHg 48%
    15:00 +26°C° 0 mm 2 mps 637 mmHg 49%
    16:00 +25°C° 0.2 mm 2 mps 637 mmHg 56%
    17:00 +24°C° 0.2 mm 2 mps 636 mmHg 62%
    18:00 +23°C° 0.2 mm 1 mps 636 mmHg 69%
    19:00 +21°C° 0.1 mm 1 mps 636 mmHg 72%
    20:00 +20°C° 0.1 mm 1 mps 636 mmHg 76%
    21:00 +19°C° 0.1 mm 1 mps 636 mmHg 80%
    22:00 +19°C° 0 mm 1 mps 636 mmHg 80%
    23:00 +19°C° 0 mm 1 mps 636 mmHg 80%

    Day after tomorrow, 22 April, Sunday

    Time Temperature Precipitation Wind Pressure Humidity
    00:00 +18°C° 0 mm 1 mps 636 mmHg 80%
    01:00 +18°C° 0 mm 1 mps 636 mmHg 81%
    02:00 +18°C° 0 mm 1 mps 635 mmHg 82%
    03:00 +16°C° 0 mm 1 mps 635 mmHg 83%
    04:00 +16°C° 0 mm 1 mps 635 mmHg 83%
    05:00 +16°C° 0 mm 1 mps 635 mmHg 84%
    06:00 +16°C° 0 mm 1 mps 635 mmHg 85%
    07:00 +19°C° 0 mm 1 mps 637 mmHg 75%
    08:00 +22°C° 0 mm 1 mps 638 mmHg 66%
    09:00 +25°C° 0 mm 1 mps 639 mmHg 56%
    10:00 +26°C° 0 mm 1 mps 639 mmHg 53%
    11:00 +27°C° 0 mm 1 mps 639 mmHg 49%
    12:00 +28°C° 0 mm 2 mps 639 mmHg 46%
    13:00 +28°C° 0.1 mm 2 mps 639 mmHg 47%
    14:00 +28°C° 0.1 mm 2 mps 638 mmHg 48%
    15:00 +27°C° 0.1 mm 2 mps 637 mmHg 49%
    16:00 +26°C° 0.4 mm 2 mps 637 mmHg 55%
    17:00 +25°C° 0.4 mm 2 mps 636 mmHg 62%
    18:00 +23°C° 0.4 mm 2 mps 636 mmHg 68%
    19:00 +22°C° 0.2 mm 1 mps 636 mmHg 73%
    20:00 +21°C° 0.2 mm 1 mps 636 mmHg 78%
    21:00 +19°C° 0.2 mm 1 mps 637 mmHg 84%
    22:00 +19°C° 0 mm 1 mps 637 mmHg 84%
    23:00 +19°C° 0 mm 1 mps 637 mmHg 84%

    23 April, Monday

    Time Temperature Precipitation Wind Pressure Humidity
    00:00 +18°C° 0 mm 1 mps 637 mmHg 84%
    01:00 +18°C° 0 mm 1 mps 636 mmHg 85%
    02:00 +18°C° 0 mm 1 mps 636 mmHg 86%
    03:00 +16°C° 0 mm 1 mps 635 mmHg 86%
    04:00 +16°C° 0 mm 1 mps 636 mmHg 87%
    05:00 +16°C° 0 mm 1 mps 636 mmHg 87%
    06:00 +16°C° 0 mm 1 mps 636 mmHg 88%
    07:00 +19°C° 0 mm 1 mps 637 mmHg 82%
    08:00 +20°C° 0 mm 1 mps 638 mmHg 75%
    09:00 +22°C° 0 mm 1 mps 639 mmHg 69%
    10:00 +23°C° 0.1 mm 2 mps 639 mmHg 66%
    11:00 +24°C° 0.1 mm 2 mps 639 mmHg 63%
    12:00 +25°C° 0.1 mm 2 mps 639 mmHg 60%
    13:00 +25°C° 0.3 mm 2 mps 638 mmHg 62%
    14:00 +24°C° 0.3 mm 2 mps 638 mmHg 64%
    15:00 +24°C° 0.3 mm 3 mps 637 mmHg 66%
    16:00 +23°C° 0.5 mm 2 mps 637 mmHg 71%
    17:00 +21°C° 0.5 mm 2 mps 637 mmHg 76%
    18:00 +20°C° 0.5 mm 2 mps 636 mmHg 81%
    19:00 +19°C° 0.3 mm 2 mps 637 mmHg 84%
    20:00 +19°C° 0.3 mm 1 mps 637 mmHg 87%
    21:00 +18°C° 0.3 mm 1 mps 637 mmHg 90%
    22:00 +18°C° 0.1 mm 1 mps 637 mmHg 90%
    23:00 +18°C° 0.1 mm 1 mps 637 mmHg 90%

    24 April, Tuesday

    Time Temperature Precipitation Wind Pressure Humidity
    00:00 +18°C° 0.1 mm 1 mps 637 mmHg 91%
    01:00 +16°C° 0 mm 1 mps 637 mmHg 90%
    02:00 +16°C° 0 mm 1 mps 636 mmHg 90%
    03:00 +16°C° 0 mm 1 mps 636 mmHg 90%
    04:00 +16°C° 0 mm 1 mps 636 mmHg 90%
    05:00 +15°C° 0 mm 1 mps 636 mmHg 90%
    06:00 +15°C° 0 mm 1 mps 636 mmHg 91%
    07:00 +18°C° 0 mm 1 mps 637 mmHg 83%
    08:00 +20°C° 0 mm 1 mps 638 mmHg 76%
    09:00 +22°C° 0 mm 1 mps 639 mmHg 69%
    10:00 +23°C° 0.1 mm 2 mps 639 mmHg 65%
    11:00 +24°C° 0.1 mm 2 mps 639 mmHg 62%
    12:00 +25°C° 0.1 mm 2 mps 639 mmHg 59%
    13:00 +24°C° 0.2 mm 2 mps 639 mmHg 62%
    14:00 +24°C° 0.2 mm 2 mps 638 mmHg 65%
    15:00 +23°C° 0.2 mm 2 mps 637 mmHg 68%
    16:00 +21°C° 0.4 mm 2 mps 637 mmHg 73%
    17:00 +20°C° 0.4 mm 2 mps 637 mmHg 78%
    18:00 +19°C° 0.4 mm 2 mps 637 mmHg 83%
    19:00 +18°C° 0.1 mm 2 mps 637 mmHg 86%
    20:00 +18°C° 0.1 mm 2 mps 638 mmHg 89%
    21:00 +18°C° 0.1 mm 1 mps 638 mmHg 92%
    22:00 +18°C° 0.1 mm 1 mps 638 mmHg 92%
    23:00 +18°C° 0.1 mm 1 mps 638 mmHg 92%

    25 April, Wednesday

    Time Temperature Precipitation Wind Pressure Humidity
    00:00 +16°C° 0.1 mm 1 mps 638 mmHg 92%
    01:00 +16°C° 0.1 mm 1 mps 637 mmHg 93%
    02:00 +16°C° 0.1 mm 1 mps 637 mmHg 93%
    03:00 +16°C° 0.1 mm 1 mps 637 mmHg 93%
    04:00 +16°C° 0 mm 1 mps 637 mmHg 93%
    05:00 +15°C° 0 mm 1 mps 637 mmHg 94%
    06:00 +15°C° 0 mm 1 mps 637 mmHg 94%
    07:00 +18°C° 0.1 mm 1 mps 638 mmHg 87%
    08:00 +19°C° 0.1 mm 1 mps 639 mmHg 81%
    09:00 +20°C° 0.1 mm 1 mps 639 mmHg 75%
    10:00 +20°C° 0.1 mm 2 mps 639 mmHg 70%
    11:00 +23°C° 0.1 mm 2 mps 639 mmHg 65%
    12:00 +24°C° 0.1 mm 2 mps 639 mmHg 60%
    13:00 +24°C° 0.1 mm 2 mps 639 mmHg 61%
    14:00 +24°C° 0.1 mm 3 mps 638 mmHg 62%
    15:00 +24°C° 0.1 mm 3 mps 638 mmHg 63%
    16:00 +21°C° 0.2 mm 3 mps 637 mmHg 69%
    17:00 +20°C° 0.2 mm 2 mps 637 mmHg 75%
    18:00 +19°C° 0.2 mm 2 mps 637 mmHg 81%
    19:00 +18°C° 0.1 mm 2 mps 637 mmHg 84%
    20:00 +17°C° 0.1 mm 2 mps 637 mmHg 86%
    21:00 +18°C° 0.1 mm 1 mps 638 mmHg 89%
    22:00 +16°C° 0 mm 1 mps 637 mmHg 90%
    23:00 +16°C° 0 mm 1 mps 637 mmHg 91%
    Show more